Погода в Колумбии

США     39°13′14″N   76°51′34″W
темп.,
°C
ветер,
м/с
пор.,
м/с
влажн.,
%
обл.,
%
осадки,
мм/ч
давл.,
гПа
погр.,
м
6 мая, чт
чт623:00+13сз612570 0.0 1014993
02:00+10сз510585 0.0 10161199
05:00+9сз49555 0.0 1016962
08:00+10ссз48590 0.0 1018923
11:00+14ссз45445 0.0 10181489
14:00+17сз343717 0.0 10161700
17:00+17сз3339100 0.0 10151803
20:00+15ссз0148100 0.0 101532
7 мая, пт
пт723:00+13ю1258100 0.0 101564
02:00+11юз116396 0.0 101323
05:00+10ююв116435 0.0 101220
08:00+12вюв246068 0.0 1011349
11:00+16ююв2347100 0.0 10101647
14:00+14з4370100 0.9 1008641
17:00+10з5990100 3.2 1008571
20:00+9с3993100 10.3 1010739
8 мая, сб
сб823:00+8зсз3892100 0.5 1011754
02:00+6сз410873 0.5 1010552
05:00+5зсз310840 0.0 1010491
08:00+7сз4107091 0.0 1013680
11:00+11сз5853100 0.0 10131549
14:00+13зсз5847100 0.1 10132115
17:00+15зсз684114 0.0 10142012
20:00+12з411582 0.0 1015815
9 мая, вс
вс923:00+9з513630 0.0 1018675
02:00+8зсз4117055 0.0 1019376
05:00+7сз2671100 0.0 1019168
08:00+10з235990 0.0 1020244
11:00+15юз3641100 0.0 10191714
14:00+13юз6652100 0.1 10181233
17:00+9ю2492100 2.4 1016373
20:00+9в2494100 4.9 1015306
10 мая, пн
пн1023:00+9в2697100 2.3 1013330
02:00+9вюв2597100 2.4 1010246
05:00+9ю1599100 0.2 1007169
08:00+12юз31593100 0.4 1007440
11:00+19юз51284100 0.4 1006642
14:00+23юз51366100 0.7 10051556
17:00+18зсз71492100 4.6 10051089
20:00+13зсз713720 5.8 1011937